This is the latest recevied weather packets stored in our database for station/object VE1DX. If no packets are shown the sender has not sent any weather packets the latest 10 day(s).
| Time | Temp. | Humidity | Pressure | Rain* | Wind** | Luminosity | Snow |
|---|---|---|---|---|---|---|---|
| 1777911016 | 12.78° C | 36% | 1003.8 hPa | 0 mm | - | - | - |
| 1777910716 | 12.22° C | 40% | 1003.6 hPa | 0 mm | - | - | - |
| 1777910417 | 12.22° C | 40% | 1003.8 hPa | 0 mm | - | - | - |
| 1777910117 | 12.22° C | 42% | 1003.8 hPa | 0 mm | - | - | - |
| 1777909816 | 12.22° C | 42% | 1003.9 hPa | 0 mm | - | - | - |
| 1777909517 | 11.67° C | 42% | 1004 hPa | 0 mm | - | - | - |
| 1777909217 | 11.67° C | 42% | 1003.9 hPa | 0 mm | - | - | - |
| 1777908917 | 11.67° C | 46% | 1003.7 hPa | 0 mm | - | - | - |
| 1777908617 | 11.67° C | 45% | 1003.7 hPa | 0 mm | - | - | - |
| 1777908317 | 11.67° C | 47% | 1003.8 hPa | 0 mm | - | - | - |
| 1777908017 | 11.67° C | 49% | 1003.7 hPa | 0 mm | - | - | - |
| 1777907717 | 11.67° C | 51% | 1003.5 hPa | 0 mm | - | - | - |
| 1777907417 | 11.67° C | 54% | 1003.5 hPa | 0 mm | - | - | - |
| 1777907117 | 11.67° C | 54% | 1003.4 hPa | 0 mm | - | - | - |
| 1777906817 | 11.11° C | 54% | 1003.5 hPa | 0 mm | - | - | - |
| 1777906517 | 11.11° C | 54% | 1003.5 hPa | 0 mm | - | - | - |
| 1777906217 | 11.11° C | 55% | 1003.6 hPa | 0 mm | - | - | - |
| 1777905916 | 11.11° C | 55% | 1003.5 hPa | 0 mm | - | - | - |
| 1777905617 | 11.11° C | 57% | 1003.2 hPa | 0 mm | - | - | - |
| 1777905317 | 11.11° C | 58% | 1003.3 hPa | 0 mm | - | - | - |
| 1777905017 | 11.11° C | 60% | 1003.1 hPa | 0 mm | - | - | - |
| 1777904716 | 10.56° C | 60% | 1003.1 hPa | 0 mm | - | - | - |
| 1777904417 | 10.56° C | 62% | 1003.2 hPa | 0 mm | - | - | - |
| 1777904117 | 10.56° C | 61% | 1003.1 hPa | 0 mm | - | - | - |
| 1777903817 | 10.56° C | 62% | 1003.1 hPa | 0 mm | - | - | - |
* Rain latest hour (hover to see other rain measurements)
** Current wind speed in m/s (hover to see current wind gust speed)